GW2991 Weather Reports


Display with metric or nautical units.
time (UTC)temp
F
wind
direction
speed
MPH
gust
MPH
rain 1hr
in
rain 24hr
in
rain mn
in
humidity
%
barometer
mb
20260502205105 70 313 4.0 12.0 0.00 0.00 0.00 29 1014.1
20260502204606 70 262 4.0 12.0 0.00 0.00 0.00 30 1014.3
20260502203605 71 198 3.0 8.0 0.00 0.00 0.00 29 1014.2
20260502203106 71 339 4.0 11.0 0.00 0.00 0.00 29 1014.4
20260502202608 71 317 4.0 11.0 0.00 0.00 0.00 29 1014.8
20260502202105 70 323 4.0 11.0 0.00 0.00 0.00 29 1014.6
20260502201605 70 42 4.0 11.0 0.00 0.00 0.00 30 1014.7
20260502201105 70 296 4.0 10.0 0.00 0.00 0.00 29 1014.9
20260502200105 70 300 3.0 9.0 0.00 0.00 0.00 29 1014.9
20260502195607 68 41 4.0 9.0 0.00 0.00 0.00 30 1015.1
20260502194605 68 297 4.0 15.0 0.00 0.00 0.00 31 1015.4
20260502194105 69 341 4.0 11.0 0.00 0.00 0.00 29 1015.3
20260502193605 68 348 4.0 15.0 0.00 0.00 0.00 29 1015.4
20260502193103 68 316 4.0 15.0 0.00 0.00 0.00 30 1015.6
20260502192603 67 125 4.0 11.0 0.00 0.00 0.00 30 1015.5
20260502192104 68 250 4.0 11.0 0.00 0.00 0.00 30 1015.6
20260502191603 68 286 3.0 10.0 0.00 0.00 0.00 30 1015.7
20260502190604 67 258 4.0 11.0 0.00 0.00 0.00 32 1015.7
20260502185604 67 319 4.0 13.0 0.00 0.00 0.00 31 1015.8
20260502185104 67 288 4.0 13.0 0.00 0.00 0.00 31 1016.1
20260502184603 67 312 3.0 9.0 0.00 0.00 0.00 31 1016.0
20260502184103 67 341 3.0 9.0 0.00 0.00 0.00 31 1015.9
20260502183603 67 320 3.0 9.0 0.00 0.00 0.00 32 1016.1
20260502183103 66 336 4.0 12.0 0.00 0.00 0.00 33 1016.1
20260502182602 66 255 4.0 12.0 0.00 0.00 0.00 33 1016.4
20260502182104 66 308 3.0 10.0 0.00 0.00 0.00 33 1016.4
20260502181605 65 109 2.0 6.0 0.00 0.00 0.00 33 1016.4
20260502181103 65 193 3.0 9.0 0.00 0.00 0.00 34 1016.4
20260502180604 65 157 3.0 9.0 0.00 0.00 0.00 34 1016.7
20260502180104 65 179 3.0 8.0 0.00 0.00 0.00 33 1016.8
20260502164100 60 57 3.0 8.0 0.00 0.00 0.00 39 1017.5
20260502163601 60 20 4.0 9.0 0.00 0.00 0.00 39 1017.7
20260502163101 60 210 4.0 9.0 0.00 0.00 0.00 40 1017.6
20260502162100 59 167 3.0 7.0 0.00 0.00 0.00 41 1017.6
20260502161101 59 233 2.0 6.0 0.00 0.00 0.00 42 1017.6
20260502160601 58 260 2.0 6.0 0.00 0.00 0.00 44 1017.6
20260502151556 52 157 3.0 6.0 0.00 0.00 0.00 56 1018.4
20260502151057 51 214 2.0 6.0 0.00 0.00 0.00 57 1018.5
20260502150601 51 219 2.0 5.0 0.00 0.00 0.00 57 1018.5
20260502130549 37 197 2.0 4.0 0.00 0.00 0.00 82 1019.7
20260502123552 36 177 1.0 3.0 0.00 0.00 0.00 84 1019.7
20260502123049 36 193 1.0 3.0 0.00 0.00 0.00 84 1019.7
20260502122548 36 148 1.0 3.0 0.00 0.00 0.00 83 1019.8
20260502122048 36 163 2.0 3.0 0.00 0.00 0.00 83 1019.8
20260502121548 36 167 2.0 3.0 0.00 0.00 0.00 84 1019.7
20260502121049 36 167 2.0 3.0 0.00 0.00 0.00 83 1019.7
20260502120551 36 144 2.0 3.0 0.00 0.00 0.00 83 1019.7
20260502115546 36 152 2.0 3.0 0.00 0.00 0.00 83 1019.5
20260502115046 36 154 2.0 4.0 0.00 0.00 0.00 83 1019.5
20260502114546 36 157 2.0 4.0 0.00 0.00 0.00 83 1019.5
20260502113045 36 150 2.0 3.0 0.00 0.00 0.00 83 1019.7
20260502112044 36 151 1.0 3.0 0.00 0.00 0.00 83 1019.7
20260502111545 36 150 1.0 3.0 0.00 0.00 0.00 83 1019.5
20260502111047 36 171 1.0 3.0 0.00 0.00 0.00 83 1019.7
20260502110043 36 164 1.0 3.0 0.00 0.00 0.00 82 1019.8
20260502105546 37 164 1.0 3.0 0.00 0.00 0.00 82 1019.7
20260502105044 37 129 1.0 3.0 0.00 0.00 0.00 82 1019.5
20260502104542 37 160 1.0 3.0 0.00 0.00 0.00 82 1019.7
20260502104043 37 156 2.0 3.0 0.00 0.00 0.00 82 1019.7
20260502103544 37 142 2.0 3.0 0.00 0.00 0.00 82 1019.7
20260502103043 37 140 2.0 3.0 0.00 0.00 0.00 81 1019.7
20260502102544 38 139 1.0 3.0 0.00 0.00 0.00 81 1019.8
20260502102043 38 162 1.0 3.0 0.00 0.00 0.00 80 1019.8
20260502101544 38 183 2.0 3.0 0.00 0.00 0.00 80 1019.5
20260502101043 38 156 2.0 3.0 0.00 0.00 0.00 80 1019.5
20260502100543 38 135 2.0 4.0 0.00 0.00 0.00 81 1019.4
20260502091038 39 208 2.0 4.0 0.00 0.00 0.00 80 1019.3
20260502090540 39 165 2.0 4.0 0.00 0.00 0.00 80 1019.3
20260502071035 43 241 0.0 1.0 0.00 0.00 0.00 74 1018.8
20260502070534 43 0 0.0 1.0 0.00 0.00 0.00 73 1018.9
20260502070036 43 0 0.0 1.0 0.00 0.00 0.00 72 1019.0
20260502065535 44 0 0.0 2.0 0.00 0.00 0.00 72 1019.0
20260502065034 44 123 0.0 2.0 0.00 0.00 0.00 72 1018.9
20260502064035 44 0 0.0 1.0 0.00 0.00 0.00 71 1019.1
20260502063534 44 0 0.0 1.0 0.00 0.00 0.00 71 1019.1
20260502063037 45 0 0.0 1.0 0.00 0.00 0.00 70 1019.0
20260502062535 45 0 0.0 1.0 0.00 0.00 0.00 70 1018.8
20260502062036 45 0 0.0 2.0 0.00 0.00 0.00 69 1018.7
20260502061535 46 325 1.0 2.0 0.00 0.00 0.00 69 1018.7
20260502061034 46 350 1.0 2.0 0.00 0.00 0.00 68 1018.6
20260502060035 46 328 1.0 2.0 0.00 0.00 0.00 67 1018.6
20260502055541 46 327 1.0 3.0 0.00 0.00 0.00 67 1018.5
20260502055031 47 300 1.0 3.0 0.00 0.00 0.00 67 1018.5
20260502054531 47 341 1.0 2.0 0.00 0.00 0.00 66 1018.5
20260502054031 47 339 1.0 2.0 0.00 0.00 0.00 65 1018.6
20260502053531 48 286 0.0 1.0 0.00 0.00 0.00 65 1018.7
20260502052531 48 0 0.0 2.0 0.00 0.00 0.00 63 1018.7
20260502051529 49 304 1.0 2.0 0.00 0.00 0.00 62 1018.4
20260502051028 49 337 1.0 2.0 0.00 0.00 0.00 61 1018.4
20260502050535 50 331 0.0 2.0 0.00 0.00 0.00 61 1018.6
20260502050036 50 323 1.0 2.0 0.00 0.00 0.00 59 1018.6
20260502045530 51 313 1.0 3.0 0.00 0.00 0.00 59 1018.4
20260502045029 51 324 1.0 3.0 0.00 0.00 0.00 58 1018.4
20260502044528 52 324 2.0 3.0 0.00 0.00 0.00 57 1018.3
20260502044029 52 353 2.0 5.0 0.00 0.00 0.00 57 1018.2
20260502043532 52 350 2.0 5.0 0.00 0.00 0.00 56 1018.0
20260502042526 53 41 2.0 6.0 0.00 0.00 0.00 55 1017.9
20260502042028 53 352 3.0 6.0 0.00 0.00 0.00 55 1017.9
20260502041538 53 8 3.0 6.0 0.00 0.00 0.00 54 1017.8
20260502041026 54 338 3.0 6.0 0.00 0.00 0.00 53 1017.8
20260502040525 54 334 3.0 6.0 0.00 0.00 0.00 53 1017.8
20260502040025 54 7 3.0 8.0 0.00 0.00 0.00 52 1017.7
20260502035525 55 7 3.0 8.0 0.00 0.00 0.00 51 1017.7
20260502035026 55 338 4.0 8.0 0.00 0.00 0.00 51 1017.6
20260502034026 55 348 4.0 9.0 0.00 0.00 0.00 50 1017.5
20260502033526 56 326 4.0 11.0 0.00 0.00 0.00 50 1017.5
20260502033024 56 9 4.0 11.0 0.00 0.00 0.00 49 1017.4
20260502032536 56 342 5.0 11.0 0.00 0.00 0.00 49 1017.4
20260502032021 56 338 5.0 11.0 0.00 0.00 0.00 49 1017.4
20260502031521 57 351 5.0 9.0 0.00 0.00 0.00 48 1017.3
20260502031021 57 350 4.0 9.0 0.00 0.00 0.00 48 1017.2
20260502030522 57 329 4.0 9.0 0.00 0.00 0.00 48 1017.1
20260502025522 58 22 4.0 8.0 0.00 0.00 0.00 47 1016.9
20260502025022 58 8 4.0 10.0 0.00 0.00 0.00 46 1016.8
20260502024522 59 15 4.0 11.0 0.00 0.00 0.00 46 1016.7
20260502024022 59 10 4.0 11.0 0.00 0.00 0.00 45 1016.6
20260502023523 59 335 5.0 12.0 0.00 0.00 0.00 44 1016.6
20260502023022 60 2 5.0 12.0 0.00 0.00 0.00 44 1016.3
20260502022520 60 349 6.0 12.0 0.00 0.00 0.00 43 1016.2
20260502021519 61 20 6.0 14.0 0.00 0.00 0.00 43 1015.9
20260502021019 61 179 6.0 16.0 0.00 0.00 0.00 41 1015.8
20260502020520 62 33 7.0 16.0 0.00 0.00 0.00 42 1015.9
20260502015520 63 22 7.0 15.0 0.00 0.00 0.00 39 1015.5
20260502015020 63 8 7.0 15.0 0.00 0.00 0.00 38 1015.5
20260502014522 64 348 5.0 11.0 0.00 0.00 0.00 36 1015.4
20260502014021 64 344 5.0 10.0 0.00 0.00 0.00 35 1015.4
20260502013524 64 328 5.0 10.0 0.00 0.00 0.00 34 1015.4
20260502011520 66 323 5.0 12.0 0.00 0.00 0.00 33 1015.2
20260502011018 67 329 5.0 13.0 0.00 0.00 0.00 33 1015.2
20260502010517 67 336 4.0 13.0 0.00 0.00 0.00 32 1015.2
20260502010017 68 329 4.0 11.0 0.00 0.00 0.00 31 1014.9
20260502005017 67 329 5.0 13.0 0.00 0.00 0.00 32 1014.7
20260502004517 66 325 5.0 15.0 0.00 0.00 0.00 33 1014.6
20260502004017 65 319 4.0 15.0 0.00 0.00 0.00 34 1014.8
20260502003517 66 326 4.0 12.0 0.00 0.00 0.00 34 1014.8
20260502003019 66 303 5.0 14.0 0.00 0.00 0.00 34 1014.8
20260502002518 65 328 5.0 15.0 0.00 0.00 0.00 35 1014.7
20260502002017 66 328 5.0 15.0 0.00 0.00 0.00 34 1014.9
20260502001518 66 313 5.0 15.0 0.00 0.00 0.00 34 1014.8
20260502001020 66 273 4.0 15.0 0.00 0.00 0.00 34 1014.7
20260502000528 66 330 4.0 11.0 0.00 0.00 0.00 35 1014.9
20260501235518 65 325 4.0 12.0 0.00 0.00 0.00 36 1014.8
20260501234518 66 307 4.0 11.0 0.00 0.00 0.00 36 1014.9
20260501234018 66 304 4.0 11.0 0.00 0.00 0.00 36 1014.9
20260501233518 67 331 3.0 11.0 0.00 0.00 0.00 36 1015.1
20260501232521 68 320 4.0 11.0 0.00 0.00 0.00 35 1014.9
20260501232018 69 298 4.0 12.0 0.00 0.00 0.00 34 1014.8
20260501231516 69 345 4.0 12.0 0.00 0.00 0.00 34 1014.7
20260501231019 68 333 5.0 14.0 0.00 0.00 0.00 33 1014.4
20260501230516 67 308 5.0 14.0 0.00 0.00 0.00 34 1014.6
20260501230017 68 310 5.0 13.0 0.00 0.00 0.00 33 1014.7
20260501225517 67 346 5.0 13.0 0.00 0.00 0.00 34 1014.6
20260501225017 67 310 5.0 15.0 0.00 0.00 0.00 36 1014.5
20260501224516 67 243 5.0 17.0 0.00 0.00 0.00 37 1014.5
20260501224016 67 304 6.0 17.0 0.00 0.00 0.00 38 1015.1
20260501223518 69 310 5.0 17.0 0.00 0.00 0.00 37 1014.8
20260501222013 71 342 3.0 12.0 0.00 0.00 0.00 34 1014.6
20260501221514 70 276 4.0 12.0 0.00 0.00 0.00 34 1014.2
20260501220517 71 324 6.0 11.0 0.00 0.00 0.00 34 1014.4
20260501220017 71 340 6.0 13.0 0.00 0.00 0.00 34 1014.5
20260501215519 70 351 5.0 13.0 0.00 0.00 0.00 35 1014.7
20260501215014 71 300 5.0 11.0 0.00 0.00 0.00 35 1014.5
20260501214515 71 330 5.0 11.0 0.00 0.00 0.00 35 1014.5
20260501214016 70 347 5.0 12.0 0.00 0.00 0.00 35 1014.4
20260501213515 69 337 6.0 12.0 0.00 0.00 0.00 35 1014.6
20260501213015 68 347 6.0 11.0 0.00 0.00 0.00 36 1014.5
20260501212520 68 336 6.0 12.0 0.00 0.00 0.00 37 1014.5
20260501212014 68 357 6.0 12.0 0.00 0.00 0.00 37 1014.9
20260501211514 68 315 6.0 11.0 0.00 0.00 0.00 37 1014.9
20260501211015 69 343 6.0 11.0 0.00 0.00 0.00 36 1015.1
20260501210514 68 1 6.0 11.0 0.00 0.00 0.00 36 1014.6
20260501210012 68 332 6.0 11.0 0.00 0.00 0.00 36 1014.8
20260501205513 68 340 6.0 12.0 0.00 0.00 0.00 37 1014.7